EDT,Max TemperatureF,Mean TemperatureF,Min TemperatureF,Max Dew PointF,MeanDew PointF,Min DewpointF,Max Humidity, Mean Humidity, Min Humidity, Max Sea Level PressureIn, Mean Sea Level PressureIn, Min Sea Level PressureIn, Max VisibilityMiles, Mean VisibilityMiles, Min VisibilityMiles, Max Wind SpeedMPH, Mean Wind SpeedMPH, Max Gust SpeedMPH,PrecipitationIn, CloudCover, Events, WindDirDegrees
2013-3-1,42,36,30,31,27,24,89,68,55,29.83,29.76,29.67,10,10,10,13,6,18,0.00,6,,327
2013-3-2,37,34,32,23,22,20,66,59,53,29.85,29.81,29.76,10,10,10,15,9,20,0.00,8,,325
2013-3-3,37,32,26,20,18,16,69,56,47,29.83,29.79,29.75,10,10,10,15,10,23,0.00,6,,311
2013-3-4,39,34,28,21,19,15,66,55,43,29.98,29.90,29.84,10,10,10,17,14,30,0.00,4,,299
2013-3-5,46,38,30,27,24,21,72,58,44,30.05,30.00,29.93,10,10,10,10,7,18,0.00,2,,352
2013-3-6,41,38,34,37,31,26,100,76,60,29.97,29.85,29.79,10,10,9,25,12,33,0.03,7,Rain,47
2013-3-7,46,40,34,26,24,20,64,53,43,30.12,30.06,29.97,10,10,10,17,11,25,0.00,7,,348
2013-3-8,44,37,30,27,25,18,86,63,46,30.26,30.14,30.09,10,8,2,22,14,36,0.00,7,Snow,334
2013-3-9,62,45,28,23,19,13,72,42,15,30.31,30.27,30.23,10,10,10,10,5,,0.00,0,,320
2013-3-10,57,42,27,36,25,17,79,52,20,30.37,30.31,30.26,10,10,10,7,2,,0.00,1,,158
2013-3-11,57,48,39,48,41,36,100,83,51,30.29,30.18,30.04,10,7,1,8,4,,0.00,6,,165
2013-3-12,57,49,39,55,49,31,100,88,70,29.98,29.81,29.70,10,7,1,13,7,25,1.11,7,Rain,226
2013-3-13,48,38,30,34,27,20,86,63,47,29.97,29.91,29.86,10,10,7,14,7,23,0.00,3,Rain,287
2013-3-14,41,34,28,20,15,11,69,46,33,30.02,29.98,29.94,10,10,10,21,13,36,0.00,3,,291
2013-3-15,52,38,26,31,20,11,66,48,36,30.04,29.91,29.74,10,10,10,17,7,23,0.00,4,,260
2013-3-16,45,38,32,31,29,22,96,83,53,29.94,29.82,29.77,10,6,0,10,5,,0.15,8,Fog-Snow,48
2013-3-17,41,34,28,31,23,18,96,70,48,30.30,30.12,29.93,10,10,8,12,2,,0.00,4,,4
2013-3-18,39,32,26,33,25,11,96,77,45,30.37,30.18,29.93,10,7,1,13,6,21,0.43,7,Rain-Snow,79
2013-3-19,51,42,33,37,32,19,100,79,33,29.90,29.79,29.71,10,7,1,17,5,26,0.22,6,Rain,333
2013-3-20,46,40,33,22,17,15,54,43,29,29.94,29.87,29.79,10,10,10,16,10,30,0.00,4,,280
2013-3-21,37,32,28,29,19,10,93,62,37,29.84,29.78,29.70,10,9,2,16,6,22,0.00,6,Snow,326
2013-3-22,43,34,27,22,19,14,69,55,41,29.96,29.86,29.80,10,10,10,17,8,25,0.00,3,,281
2013-3-23,48,38,30,21,19,18,61,47,34,29.97,29.94,29.89,10,10,10,16,8,24,0.00,3,,299
2013-3-24,46,36,26,25,20,17,75,50,31,29.99,29.85,29.70,10,10,10,10,2,,0.00,1,,346
2013-3-25,37,35,33,36,31,25,100,86,62,29.68,29.58,29.51,10,5,0,14,7,24,0.27,8,Fog-Rain-Snow,38
2013-3-26,52,42,33,36,32,25,100,77,36,29.93,29.79,29.67,10,8,4,13,5,22,0.04,7,Rain,287
2013-3-27,51,40,30,33,28,24,92,63,39,30.05,29.97,29.92,10,10,10,15,5,24,0.00,2,,296
2013-3-28,48,40,34,31,27,25,75,57,42,30.17,30.08,30.02,10,10,10,13,5,20,0.00,5,,312
2013-3-29,53,43,34,29,27,25,70,54,41,30.20,30.16,30.12,10,10,10,14,6,17,0.00,4,,317
2013-3-30,57,42,28,30,25,21,85,50,26,30.21,30.16,30.11,10,10,10,9,2,17,0.00,0,,275
2013-3-31,57,46,34,47,40,25,100,81,38,30.13,29.87,29.73,10,7,2,12,3,21,0.13,6,Rain,212